TimeAKDT,TemperatureF,Dew PointF,Humidity,Sea Level PressureIn,VisibilityMPH,Wind Direction,Wind SpeedMPH,Gust SpeedMPH,PrecipitationIn,Events,Conditions,WindDirDegrees,DateUTC
12:53 AM,1.9,-0.0,91,30.32,10.0,SSW,12.7,-,N/A,,Clear,200,2013-04-22 08:53:00
1:53 AM,1.9,-0.9,88,30.30,10.0,South,10.4,-,N/A,,Clear,180,2013-04-22 09:53:00
2:53 AM,1.0,-2.0,87,30.29,10.0,SSW,10.4,-,N/A,,Clear,200,2013-04-22 10:53:00
3:53 AM,1.9,-0.9,88,30.27,10.0,SSW,12.7,-,N/A,,Clear,200,2013-04-22 11:53:00
4:53 AM,3.9,-0.0,84,30.26,10.0,SSW,13.8,-,N/A,,Clear,200,2013-04-22 12:53:00
5:53 AM,1.9,-2.0,83,30.25,10.0,SSW,12.7,-,N/A,,Clear,210,2013-04-22 13:53:00
6:53 AM,1.9,-2.0,83,30.25,10.0,South,10.4,-,N/A,,Clear,190,2013-04-22 14:53:00
7:53 AM,1.9,-2.0,83,30.24,10.0,South,10.4,-,N/A,,Clear,180,2013-04-22 15:53:00
8:53 AM,3.9,-0.0,84,30.23,10.0,South,12.7,-,N/A,,Clear,190,2013-04-22 16:53:00
9:53 AM,7.0,3.0,84,30.22,10.0,South,13.8,-,N/A,,Clear,190,2013-04-22 17:53:00
10:53 AM,12.0,8.1,84,30.22,10.0,SSW,15.0,-,N/A,,Scattered Clouds,200,2013-04-22 18:53:00
11:48 AM,19.4,14.0,80,30.20,2.0,SW,15.0,-,N/A,,Haze,220,2013-04-22 19:48:00
11:53 AM,19.0,14.0,81,30.21,9.0,SW,12.7,-,N/A,,Overcast,220,2013-04-22 19:53:00
12:53 PM,21.9,17.1,82,30.21,10.0,WSW,17.3,-,N/A,,Overcast,240,2013-04-22 20:53:00
1:53 PM,25.0,19.9,81,30.20,10.0,WSW,16.1,-,N/A,,Overcast,240,2013-04-22 21:53:00
3:53 PM,27.0,21.9,81,30.20,10.0,WSW,17.3,-,N/A,,Overcast,240,2013-04-22 23:53:00
4:53 PM,27.0,21.9,81,30.19,10.0,WSW,17.3,-,N/A,,Overcast,240,2013-04-23 00:53:00
5:53 PM,27.0,23.0,85,30.18,10.0,WSW,16.1,-,N/A,,Overcast,240,2013-04-23 01:53:00
6:53 PM,27.0,23.0,85,30.17,10.0,WSW,17.3,-,N/A,,Overcast,250,2013-04-23 02:53:00
7:53 PM,27.0,23.0,85,30.16,10.0,WSW,15.0,-,N/A,,Overcast,240,2013-04-23 03:53:00
8:53 PM,27.0,23.0,85,30.16,10.0,WSW,19.6,-,N/A,,Overcast,240,2013-04-23 04:53:00
9:53 PM,26.1,21.9,84,30.14,10.0,WSW,21.9,-,N/A,,Overcast,240,2013-04-23 05:53:00
10:53 PM,26.1,23.0,88,30.14,10.0,WSW,18.4,-,0.00,,Overcast,240,2013-04-23 06:53:00
11:53 PM,26.1,24.1,92,30.14,7.0,WSW,27.6,33.4,0.00,Snow,Light Snow,250,2013-04-23 07:53:00